| time (UTC) | temp C | wind direction | speed KPH | gust KPH | rain 1hr cm | rain 24hr cm | rain mn cm | humidity % | barometer mb |
| 20260503224114 | 15 | 43 | 6.4 | 17.7 | 0.00 | 0.00 | 0.00 | 34 | 1015.8 |
| 20260503223612 | 15 | 35 | 6.4 | 17.7 | 0.00 | 0.00 | 0.00 | 32 | 1016.0 |
| 20260503223107 | 15 | 356 | 4.8 | 12.9 | 0.00 | 0.00 | 0.00 | 33 | 1016.1 |
| 20260503222606 | 15 | 8 | 6.4 | 6.4 | 0.00 | 0.00 | 0.00 | 30 | 1016.2 |
| 20260503222103 | 15 | 22 | 4.8 | 9.7 | 0.00 | 0.00 | 0.00 | 29 | 1016.2 |
| 20260503221601 | 15 | 16 | 8.0 | 12.9 | 0.00 | 0.00 | 0.00 | 30 | 1016.2 |
| 20260503221058 | 15 | 345 | 12.9 | 14.5 | 0.00 | 0.00 | 0.00 | 29 | 1016.0 |
| 20260503220554 | 15 | 28 | 11.3 | 24.1 | 0.00 | 0.00 | 0.00 | 28 | 1016.3 |
| 20260503220052 | 15 | 340 | 11.3 | 25.7 | 0.00 | 0.00 | 0.00 | 31 | 1016.5 |
| 20260503215549 | 16 | 345 | 8.0 | 17.7 | 0.00 | 0.00 | 0.00 | 32 | 1016.0 |
| 20260503215046 | 16 | 355 | 6.4 | 9.7 | 0.00 | 0.00 | 0.00 | 29 | 1016.2 |
| 20260503214544 | 16 | 340 | 8.0 | 14.5 | 0.00 | 0.00 | 0.00 | 28 | 1016.2 |
| 20260503214040 | 15 | 49 | 12.9 | 20.9 | 0.00 | 0.00 | 0.00 | 28 | 1016.2 |
| 20260503213539 | 15 | 347 | 11.3 | 17.7 | 0.00 | 0.00 | 0.00 | 30 | 1016.0 |
| 20260503213035 | 15 | 43 | 16.1 | 17.7 | 0.00 | 0.00 | 0.00 | 29 | 1016.2 |
| 20260503212532 | 15 | 56 | 4.8 | 14.5 | 0.00 | 0.00 | 0.00 | 31 | 1016.1 |
| 20260503212030 | 15 | 16 | 6.4 | 22.5 | 0.00 | 0.00 | 0.00 | 33 | 1016.1 |
| 20260503211526 | 15 | 13 | 14.5 | 24.1 | 0.00 | 0.00 | 0.00 | 29 | 1016.1 |
| 20260503211022 | 15 | 44 | 9.7 | 14.5 | 0.00 | 0.00 | 0.00 | 30 | 1016.0 |
| 20260503210519 | 15 | 337 | 14.5 | 17.7 | 0.00 | 0.00 | 0.00 | 31 | 1016.5 |
| 20260503210015 | 15 | 2 | 16.1 | 20.9 | 0.00 | 0.00 | 0.00 | 28 | 1016.3 |
| 20260503205512 | 15 | 19 | 12.9 | 25.7 | 0.00 | 0.00 | 0.00 | 30 | 1016.4 |
| 20260503205008 | 15 | 351 | 9.7 | 20.9 | 0.00 | 0.00 | 0.00 | 29 | 1016.2 |
| 20260503204505 | 15 | 53 | 17.7 | 27.4 | 0.00 | 0.00 | 0.00 | 29 | 1016.1 |
| 20260503204001 | 15 | 22 | 12.9 | 17.7 | 0.00 | 0.00 | 0.00 | 31 | 1016.3 |
| 20260503203459 | 14 | 343 | 16.1 | 24.1 | 0.00 | 0.00 | 0.00 | 33 | 1016.6 |
| 20260503202955 | 15 | 56 | 12.9 | 24.1 | 0.00 | 0.00 | 0.00 | 30 | 1016.4 |
| 20260503202454 | 15 | 49 | 22.5 | 29.0 | 0.00 | 0.00 | 0.00 | 30 | 1016.2 |
| 20260503201952 | 15 | 5 | 8.0 | 17.7 | 0.00 | 0.00 | 0.00 | 34 | 1016.5 |
| 20260503201449 | 15 | 20 | 14.5 | 24.1 | 0.00 | 0.00 | 0.00 | 28 | 1016.3 |
| 20260503200947 | 15 | 22 | 9.7 | 24.1 | 0.00 | 0.00 | 0.00 | 32 | 1016.6 |
| 20260503200443 | 15 | 17 | 9.7 | 20.9 | 0.00 | 0.00 | 0.00 | 32 | 1016.8 |
| 20260503195940 | 15 | 332 | 20.9 | 25.7 | 0.00 | 0.00 | 0.00 | 32 | 1016.7 |
| 20260503195437 | 15 | 40 | 8.0 | 12.9 | 0.00 | 0.00 | 0.00 | 35 | 1016.7 |
| 20260503194933 | 14 | 326 | 11.3 | 22.5 | 0.00 | 0.00 | 0.00 | 33 | 1016.8 |
| 20260503194430 | 15 | 347 | 9.7 | 16.1 | 0.00 | 0.00 | 0.00 | 29 | 1016.8 |
| 20260503193926 | 15 | 46 | 4.8 | 11.3 | 0.00 | 0.00 | 0.00 | 30 | 1017.0 |
| 20260503193421 | 13 | 13 | 8.0 | 25.7 | 0.00 | 0.00 | 0.00 | 34 | 1017.0 |
| 20260503192917 | 13 | 64 | 8.0 | 17.7 | 0.00 | 0.00 | 0.00 | 35 | 1017.2 |
| 20260503192414 | 14 | 39 | 12.9 | 27.4 | 0.00 | 0.00 | 0.00 | 36 | 1017.0 |
| 20260503191909 | 15 | 211 | 3.2 | 9.7 | 0.00 | 0.00 | 0.00 | 36 | 1017.0 |
| 20260503191408 | 13 | 357 | 6.4 | 16.1 | 0.00 | 0.00 | 0.00 | 33 | 1017.0 |
| 20260503190903 | 13 | 47 | 4.8 | 11.3 | 0.00 | 0.00 | 0.00 | 32 | 1017.2 |
| 20260503190401 | 13 | 32 | 8.0 | 20.9 | 0.00 | 0.00 | 0.00 | 32 | 1017.3 |
| 20260503185857 | 13 | 356 | 6.4 | 17.7 | 0.00 | 0.00 | 0.00 | 32 | 1017.3 |
| 20260503185354 | 13 | 37 | 17.7 | 22.5 | 0.00 | 0.00 | 0.00 | 33 | 1017.3 |
| 20260503184854 | 13 | 58 | 12.9 | 17.7 | 0.00 | 0.00 | 0.00 | 35 | 1017.2 |
| 20260503184350 | 14 | 19 | 16.1 | 20.9 | 0.00 | 0.00 | 0.00 | 35 | 1017.7 |
| 20260503183846 | 13 | 352 | 14.5 | 17.7 | 0.00 | 0.00 | 0.00 | 33 | 1017.5 |
| 20260503183343 | 13 | 66 | 24.1 | 30.6 | 0.00 | 0.00 | 0.00 | 33 | 1017.5 |
| 20260503182840 | 13 | 48 | 9.7 | 16.1 | 0.00 | 0.00 | 0.00 | 35 | 1017.5 |
| 20260503182340 | 13 | 45 | 11.3 | 27.4 | 0.00 | 0.00 | 0.00 | 37 | 1017.6 |
| 20260503181836 | 13 | 332 | 8.0 | 20.9 | 0.00 | 0.00 | 0.00 | 37 | 1017.6 |
| 20260503181333 | 13 | 56 | 17.7 | 27.4 | 0.00 | 0.00 | 0.00 | 34 | 1017.7 |
| 20260503180829 | 13 | 12 | 9.7 | 37.0 | 0.00 | 0.00 | 0.00 | 34 | 1017.7 |
| 20260503180328 | 13 | 31 | 12.9 | 17.7 | 0.00 | 0.00 | 0.00 | 34 | 1017.8 |
| 20260503175824 | 12 | 56 | 16.1 | 17.7 | 0.00 | 0.00 | 0.00 | 35 | 1017.6 |
| 20260503175322 | 13 | 112 | 9.7 | 12.9 | 0.00 | 0.00 | 0.00 | 34 | 1017.8 |
| 20260503174817 | 13 | 26 | 12.9 | 17.7 | 0.00 | 0.00 | 0.00 | 32 | 1017.9 |
| 20260503174316 | 13 | 3 | 16.1 | 22.5 | 0.00 | 0.00 | 0.00 | 33 | 1018.0 |
| 20260503173811 | 12 | 60 | 6.4 | 17.7 | 0.00 | 0.00 | 0.00 | 33 | 1017.9 |
| 20260503173307 | 13 | 54 | 19.3 | 22.5 | 0.00 | 0.00 | 0.00 | 35 | 1018.0 |
| 20260503172804 | 12 | 357 | 20.9 | 25.7 | 0.00 | 0.00 | 0.00 | 33 | 1018.0 |
| 20260503172301 | 12 | 54 | 19.3 | 25.7 | 0.00 | 0.00 | 0.00 | 36 | 1018.0 |
| 20260503171757 | 12 | 57 | 17.7 | 22.5 | 0.00 | 0.00 | 0.00 | 37 | 1018.1 |
| 20260503171254 | 12 | 60 | 14.5 | 22.5 | 0.00 | 0.00 | 0.00 | 34 | 1018.1 |
| 20260503170752 | 12 | 28 | 9.7 | 12.9 | 0.00 | 0.00 | 0.00 | 35 | 1018.2 |
| 20260503170248 | 12 | 340 | 17.7 | 24.1 | 0.00 | 0.00 | 0.00 | 37 | 1018.3 |
| 20260503160210 | 10 | 54 | 17.7 | 17.7 | 0.00 | 0.00 | 0.00 | 42 | 1019.0 |
| 20260503150641 | 10 | 28 | 17.7 | 20.9 | 0.00 | 0.00 | 0.00 | 44 | 1019.6 |
| 20260503150136 | 9 | 62 | 14.5 | 17.7 | 0.00 | 0.00 | 0.00 | 46 | 1019.5 |
| 20260503131030 | 6 | 355 | 3.2 | 11.3 | 0.00 | 0.00 | 0.00 | 61 | 1019.8 |
| 20260503130527 | 5 | 320 | 3.2 | 9.7 | 0.00 | 0.00 | 0.00 | 61 | 1019.8 |
| 20260503110418 | 2 | 3 | 3.2 | 3.2 | 0.00 | 0.00 | 0.00 | 71 | 1019.3 |
| 20260503090320 | 2 | 37 | 1.6 | 3.2 | 0.00 | 0.00 | 0.00 | 71 | 1018.2 |
| 20260503081248 | 2 | 30 | 1.6 | 6.4 | 0.00 | 0.00 | 0.00 | 70 | 1018.1 |
| 20260503080743 | 2 | 2 | 6.4 | 9.7 | 0.00 | 0.00 | 0.00 | 69 | 1017.9 |
| 20260503080242 | 2 | 347 | 4.8 | 4.8 | 0.00 | 0.00 | 0.00 | 71 | 1017.9 |
| 20260503072718 | 3 | 9 | 1.6 | 3.2 | 0.00 | 0.00 | 0.00 | 71 | 1017.6 |
| 20260503072214 | 3 | 19 | 1.6 | 3.2 | 0.00 | 0.00 | 0.00 | 70 | 1017.6 |
| 20260503071711 | 3 | 28 | 3.2 | 4.8 | 0.00 | 0.00 | 0.00 | 69 | 1017.6 |
| 20260503071208 | 3 | 17 | 3.2 | 6.4 | 0.00 | 0.00 | 0.00 | 69 | 1017.5 |
| 20260503070704 | 3 | 46 | 1.6 | 9.7 | 0.00 | 0.00 | 0.00 | 68 | 1017.5 |
| 20260503070203 | 3 | 22 | 3.2 | 6.4 | 0.00 | 0.00 | 0.00 | 68 | 1017.4 |
| 20260503060127 | 4 | 28 | 6.4 | 6.4 | 0.00 | 0.00 | 0.00 | 69 | 1017.2 |
| 20260503055119 | 5 | 46 | 4.8 | 6.4 | 0.00 | 0.00 | 0.00 | 69 | 1017.5 |
| 20260503054614 | 4 | 64 | 4.8 | 9.7 | 0.00 | 0.00 | 0.00 | 69 | 1017.3 |
| 20260503054111 | 5 | 26 | 3.2 | 4.8 | 0.00 | 0.00 | 0.00 | 69 | 1017.4 |
| 20260503053609 | 5 | 31 | 6.4 | 6.4 | 0.00 | 0.00 | 0.00 | 68 | 1017.4 |
| 20260503053108 | 5 | 43 | 6.4 | 11.3 | 0.00 | 0.00 | 0.00 | 68 | 1017.5 |
| 20260503052604 | 4 | 56 | 4.8 | 6.4 | 0.00 | 0.00 | 0.00 | 69 | 1017.4 |
| 20260503052100 | 4 | 23 | 1.6 | 4.8 | 0.00 | 0.00 | 0.00 | 69 | 1017.5 |
| 20260503051555 | 5 | 13 | 8.0 | 9.7 | 0.00 | 0.00 | 0.00 | 67 | 1017.3 |
| 20260503051054 | 5 | 53 | 4.8 | 9.7 | 0.00 | 0.00 | 0.00 | 67 | 1017.5 |
| 20260503050549 | 5 | 29 | 4.8 | 4.8 | 0.00 | 0.00 | 0.00 | 69 | 1017.5 |
| 20260503050047 | 5 | 51 | 4.8 | 11.3 | 0.00 | 0.00 | 0.00 | 69 | 1017.4 |
| 20260503045544 | 5 | 69 | 3.2 | 6.4 | 0.00 | 0.00 | 0.00 | 69 | 1017.4 |
| 20260503045041 | 5 | 19 | 3.2 | 6.4 | 0.00 | 0.00 | 0.00 | 69 | 1017.4 |
| 20260503044538 | 5 | 9 | 4.8 | 6.4 | 0.00 | 0.00 | 0.00 | 70 | 1017.4 |
| 20260503044035 | 5 | 21 | 4.8 | 6.4 | 0.00 | 0.00 | 0.00 | 71 | 1017.5 |
| 20260503043531 | 5 | 27 | 6.4 | 9.7 | 0.00 | 0.00 | 0.00 | 70 | 1017.4 |
| 20260503043028 | 5 | 16 | 4.8 | 12.9 | 0.00 | 0.00 | 0.00 | 70 | 1017.5 |
| 20260503042525 | 5 | 336 | 6.4 | 12.9 | 0.00 | 0.00 | 0.00 | 71 | 1017.5 |
| 20260503042021 | 5 | 41 | 3.2 | 4.8 | 0.00 | 0.00 | 0.00 | 72 | 1017.8 |
| 20260503041518 | 4 | 356 | 3.2 | 11.3 | 0.00 | 0.00 | 0.00 | 71 | 1017.6 |
| 20260503041016 | 4 | 41 | 4.8 | 6.4 | 0.00 | 0.00 | 0.00 | 72 | 1017.4 |
| 20260503040513 | 4 | 49 | 3.2 | 6.4 | 0.00 | 0.00 | 0.00 | 72 | 1017.6 |
| 20260503040010 | 4 | 54 | 6.4 | 9.7 | 0.00 | 0.00 | 0.00 | 72 | 1017.6 |
| 20260503035507 | 4 | 15 | 3.2 | 4.8 | 0.00 | 0.00 | 0.00 | 74 | 1017.7 |
| 20260503035005 | 3 | 30 | 3.2 | 4.8 | 0.00 | 0.00 | 0.00 | 74 | 1017.6 |
| 20260503034501 | 3 | 347 | 0.0 | 0.0 | 0.00 | 0.00 | 0.00 | 74 | 1017.6 |
| 20260503033958 | 3 | 347 | 1.6 | 1.6 | 0.00 | 0.00 | 0.00 | 73 | 1017.4 |
| 20260503033456 | 3 | 29 | 1.6 | 3.2 | 0.00 | 0.00 | 0.00 | 72 | 1017.5 |
| 20260503032954 | 4 | 55 | 0.0 | 0.0 | 0.00 | 0.00 | 0.00 | 70 | 1017.4 |
| 20260503032452 | 4 | 55 | 4.8 | 4.8 | 0.00 | 0.00 | 0.00 | 69 | 1017.6 |
| 20260503031949 | 5 | 62 | 3.2 | 4.8 | 0.00 | 0.00 | 0.00 | 69 | 1017.5 |
| 20260503031447 | 5 | 62 | 1.6 | 4.8 | 0.00 | 0.00 | 0.00 | 69 | 1017.8 |
| 20260503030943 | 5 | 12 | 4.8 | 6.4 | 0.00 | 0.00 | 0.00 | 68 | 1017.8 |
| 20260503030440 | 5 | 53 | 3.2 | 3.2 | 0.00 | 0.00 | 0.00 | 70 | 1017.8 |
| 20260503025937 | 5 | 49 | 1.6 | 6.4 | 0.00 | 0.00 | 0.00 | 69 | 1017.7 |
| 20260503025434 | 5 | 83 | 6.4 | 9.7 | 0.00 | 0.00 | 0.00 | 68 | 1017.9 |
| 20260503024932 | 5 | 60 | 6.4 | 9.7 | 0.00 | 0.00 | 0.00 | 66 | 1017.7 |
| 20260503024428 | 5 | 68 | 6.4 | 9.7 | 0.00 | 0.00 | 0.00 | 68 | 1017.8 |
| 20260503023925 | 5 | 59 | 1.6 | 3.2 | 0.00 | 0.00 | 0.00 | 67 | 1017.8 |
| 20260503023422 | 6 | 54 | 3.2 | 6.4 | 0.00 | 0.00 | 0.00 | 65 | 1017.7 |
| 20260503022919 | 6 | 99 | 0.0 | 0.0 | 0.00 | 0.00 | 0.00 | 63 | 1017.7 |
| 20260503022420 | 6 | 44 | 1.6 | 3.2 | 0.00 | 0.00 | 0.00 | 62 | 1017.8 |
| 20260503021915 | 6 | 63 | 1.6 | 3.2 | 0.00 | 0.00 | 0.00 | 62 | 1017.9 |
| 20260503021412 | 6 | 60 | 1.6 | 3.2 | 0.00 | 0.00 | 0.00 | 60 | 1017.8 |
| 20260503020909 | 6 | 53 | 1.6 | 3.2 | 0.00 | 0.00 | 0.00 | 61 | 1017.8 |
| 20260503020407 | 6 | 42 | 1.6 | 9.7 | 0.00 | 0.00 | 0.00 | 61 | 1017.7 |
| 20260503015903 | 6 | 65 | 4.8 | 9.7 | 0.00 | 0.00 | 0.00 | 59 | 1017.6 |
| 20260503015400 | 6 | 5 | 4.8 | 9.7 | 0.00 | 0.00 | 0.00 | 58 | 1017.6 |
| 20260503014856 | 7 | 49 | 4.8 | 9.7 | 0.00 | 0.00 | 0.00 | 58 | 1017.6 |
| 20260503014354 | 7 | 28 | 9.7 | 12.9 | 0.00 | 0.00 | 0.00 | 57 | 1017.4 |
| 20260503013851 | 7 | 30 | 6.4 | 12.9 | 0.00 | 0.00 | 0.00 | 58 | 1017.3 |
| 20260503013348 | 7 | 29 | 4.8 | 6.4 | 0.00 | 0.00 | 0.00 | 59 | 1017.3 |
| 20260503012845 | 7 | 42 | 4.8 | 14.5 | 0.00 | 0.00 | 0.00 | 58 | 1017.3 |
| 20260503012343 | 7 | 56 | 11.3 | 12.9 | 0.00 | 0.00 | 0.00 | 59 | 1017.2 |
| 20260503011840 | 7 | 37 | 11.3 | 14.5 | 0.00 | 0.00 | 0.00 | 57 | 1017.0 |
| 20260503011336 | 7 | 34 | 6.4 | 9.7 | 0.00 | 0.00 | 0.00 | 62 | 1017.0 |
| 20260503010833 | 6 | 82 | 6.4 | 9.7 | 0.00 | 0.00 | 0.00 | 61 | 1017.1 |
| 20260503010330 | 7 | 57 | 1.6 | 4.8 | 0.00 | 0.00 | 0.00 | 61 | 1017.0 |
| 20260503005827 | 7 | 38 | 4.8 | 4.8 | 0.00 | 0.00 | 0.00 | 60 | 1016.8 |
| 20260503005324 | 7 | 47 | 3.2 | 4.8 | 0.00 | 0.00 | 0.00 | 61 | 1016.7 |
| 20260503004820 | 7 | 35 | 3.2 | 9.7 | 0.00 | 0.00 | 0.00 | 59 | 1016.8 |
| 20260503004318 | 7 | 29 | 6.4 | 9.7 | 0.00 | 0.00 | 0.00 | 58 | 1016.3 |
| 20260503003815 | 7 | 52 | 4.8 | 6.4 | 0.00 | 0.00 | 0.00 | 59 | 1016.4 |
| 20260503003312 | 7 | 57 | 6.4 | 9.7 | 0.00 | 0.00 | 0.00 | 58 | 1016.3 |
| 20260503002809 | 7 | 46 | 6.4 | 11.3 | 0.00 | 0.00 | 0.00 | 58 | 1016.4 |
| 20260503002306 | 7 | 51 | 6.4 | 6.4 | 0.00 | 0.00 | 0.00 | 57 | 1016.4 |
| 20260503001802 | 8 | 64 | 8.0 | 16.1 | 0.00 | 0.00 | 0.00 | 55 | 1016.3 |
| 20260503001259 | 8 | 49 | 12.9 | 14.5 | 0.00 | 0.00 | 0.00 | 55 | 1016.2 |
| 20260503000756 | 8 | 71 | 14.5 | 17.7 | 0.00 | 0.00 | 0.00 | 54 | 1016.2 |
| 20260503000253 | 8 | 53 | 14.5 | 20.9 | 0.00 | 0.00 | 0.00 | 54 | 1016.1 |
| 20260502235751 | 8 | 17 | 6.4 | 17.7 | 0.00 | 0.00 | 0.00 | 55 | 1016.1 |
| 20260502235248 | 8 | 44 | 16.1 | 20.9 | 0.00 | 0.00 | 0.00 | 54 | 1015.9 |
| 20260502234744 | 8 | 54 | 9.7 | 12.9 | 0.00 | 0.00 | 0.00 | 54 | 1015.9 |
| 20260502234242 | 8 | 45 | 8.0 | 11.3 | 0.00 | 0.00 | 0.00 | 54 | 1015.8 |
| 20260502233738 | 9 | 72 | 11.3 | 16.1 | 0.00 | 0.00 | 0.00 | 53 | 1015.6 |
| 20260502233235 | 9 | 58 | 4.8 | 12.9 | 0.00 | 0.00 | 0.00 | 55 | 1015.5 |
| 20260502232730 | 9 | 63 | 9.7 | 14.5 | 0.00 | 0.00 | 0.00 | 51 | 1015.6 |
| 20260502232228 | 9 | 54 | 17.7 | 22.5 | 0.00 | 0.00 | 0.00 | 49 | 1015.6 |
| 20260502231724 | 9 | 51 | 12.9 | 17.7 | 0.00 | 0.00 | 0.00 | 50 | 1015.5 |
| 20260502231222 | 9 | 31 | 14.5 | 22.5 | 0.00 | 0.00 | 0.00 | 47 | 1015.5 |
| 20260502230721 | 9 | 62 | 11.3 | 12.9 | 0.00 | 0.00 | 0.00 | 49 | 1015.2 |
| 20260502230218 | 9 | 85 | 8.0 | 11.3 | 0.00 | 0.00 | 0.00 | 49 | 1015.4 |
| 20260502225714 | 10 | 40 | 11.3 | 14.5 | 0.00 | 0.00 | 0.00 | 48 | 1015.2 |
| 20260502225212 | 10 | 29 | 6.4 | 14.5 | 0.00 | 0.00 | 0.00 | 49 | 1015.3 |
| 20260502224707 | 10 | 42 | 9.7 | 12.9 | 0.00 | 0.00 | 0.00 | 48 | 1015.4 |